Location: Martin
(32.0982°N, 93.2193°W)
Time: 15:57:03
(UTC+00:00)

ARIANE 6 FM1 Upper Stage - Pass Details

Date: 21 September 2024
Orbit: 563 x 595 km, 62.0° (Epoch: 12 October)

Event Time Altitude Azimuth Distance (km) Brightness Sun altitude
Exits shadow 10:43:04 - 327° (NNW) 2,497 5.8 -17.2°
Reaches altitude 10° 10:44:29 10° 326° (NW) 1,932 5.2 -16.9°
Maximum altitude 10:48:51 79° 240° (WSW) 609 2.6 -16.0°
Drops below altitude 10° 10:53:12 10° 154° (SSE) 1,920 5.6 -15.1°
Sets 10:55:27 0° 153° (SSE) 2,816 6.5 -14.6°
